MTN2674 TJSJ-TFFR

Flight info

Callsign MTN2674
Flight time N/A
Altitude FL350
Route JETSS1 COY R888 MODUX DCT TFFR/12
Aircraft B738/M-S/N

Departure

Time N/A
Airport Luis Munoz Marin International Airport (TJSJ)

Arrival

Time 2026-04-30 18:20
Airport Maryse Condé International Airport (TFFR)
Time Latitude Longitude Altitude Speed Heading
2026-04-30 17:39 18.24986 -65.06510 19463 ft 404 kts 150°
2026-04-30 17:41 18.07434 -64.94100 23636 ft 428 kts 151°
2026-04-30 17:42 18.00915 -64.89499 24749 ft 442 kts 151°
2026-04-30 17:42 17.93165 -64.84031 26108 ft 453 kts 151°
2026-04-30 17:43 17.87862 -64.80291 26878 ft 463 kts 151°
2026-04-30 17:44 17.79745 -64.74570 28051 ft 476 kts 151°
2026-04-30 17:44 17.72330 -64.67586 29557 ft 490 kts 129°
2026-04-30 17:46 17.64732 -64.51453 31858 ft 498 kts 116°
2026-04-30 17:47 17.59040 -64.38226 33593 ft 499 kts 118°
2026-04-30 17:48 17.53142 -64.25139 34938 ft 492 kts 120°
2026-04-30 17:48 17.48728 -64.15428 34938 ft 490 kts 119°
2026-04-30 17:50 17.37040 -63.89744 34927 ft 490 kts 120°
2026-04-30 17:52 17.28271 -63.70524 34924 ft 487 kts 119°
2026-04-30 17:54 17.15283 -63.42160 33486 ft 470 kts 119°
2026-04-30 17:55 17.09558 -63.29721 31574 ft 472 kts 118°
2026-04-30 17:56 17.03960 -63.17565 29581 ft 459 kts 117°
2026-04-30 17:57 16.99856 -63.08663 28090 ft 448 kts 117°
2026-04-30 17:58 16.95867 -63.00020 26633 ft 436 kts 118°
2026-04-30 17:59 16.90249 -62.89132 24711 ft 418 kts 122°
2026-04-30 18:00 16.84709 -62.78774 22848 ft 402 kts 123°
2026-04-30 18:00 16.80717 -62.71238 21481 ft 391 kts 123°
2026-04-30 18:01 16.78127 -62.66340 20583 ft 384 kts 122°
2026-04-30 18:02 16.74329 -62.59157 19253 ft 373 kts 122°
2026-04-30 18:02 16.70629 -62.52160 17948 ft 363 kts 121°
2026-04-30 18:03 16.67037 -62.45374 16680 ft 353 kts 121°
2026-04-30 18:04 16.63523 -62.38746 15414 ft 344 kts 120°
2026-04-30 18:05 16.59368 -62.30916 13910 ft 333 kts 120°
2026-04-30 18:06 16.54618 -62.21976 12191 ft 320 kts 119°
2026-04-30 18:07 16.50391 -62.14034 10634 ft 309 kts 118°
2026-04-30 18:08 16.47341 -62.08308 9729 ft 289 kts 118°
2026-04-30 18:09 16.43676 -62.01428 8337 ft 252 kts 118°
2026-04-30 18:10 16.40518 -61.95502 7190 ft 219 kts 118°
2026-04-30 18:11 16.37760 -61.90333 6194 ft 190 kts 117°
2026-04-30 18:11 16.35935 -61.86916 5722 ft 175 kts 117°
2026-04-30 18:12 16.34166 -61.83604 5284 ft 173 kts 118°
2026-04-30 18:13 16.32992 -61.81409 4904 ft 171 kts 118°
2026-04-30 18:13 16.31477 -61.78519 4455 ft 170 kts 112°
2026-04-30 18:14 16.30750 -61.75791 4065 ft 168 kts 101°
2026-04-30 18:15 16.30087 -61.72314 3675 ft 151 kts 100°
2026-04-30 18:15 16.29535 -61.69332 3062 ft 138 kts 100°
2026-04-30 18:16 16.29176 -61.67396 2647 ft 136 kts 101°
2026-04-30 18:16 16.28814 -61.65449 2261 ft 139 kts 101°
2026-04-30 18:17 16.28633 -61.64471 2047 ft 138 kts 101°
2026-04-30 18:17 16.28452 -61.63500 1861 ft 138 kts 102°
2026-04-30 18:17 16.28086 -61.61545 1469 ft 138 kts 101°
2026-04-30 18:18 16.27910 -61.60569 1278 ft 139 kts 102°
2026-04-30 18:18 16.27725 -61.59582 1079 ft 139 kts 103°
2026-04-30 18:18 16.27534 -61.58601 898 ft 139 kts 103°
2026-04-30 18:18 16.27358 -61.57610 695 ft 139 kts 101°
2026-04-30 18:19 16.27171 -61.56633 508 ft 139 kts 105°
2026-04-30 18:19 16.26991 -61.55643 318 ft 141 kts 102°
2026-04-30 18:19 16.26808 -61.54662 118 ft 139 kts 106°
2026-04-30 18:19 16.26625 -61.53693 43 ft 130 kts 98°
2026-04-30 18:20 16.26484 -61.52969 33 ft 70 kts 101°
2026-04-30 18:20 16.26429 -61.52637 35 ft 43 kts 100°
2026-04-30 18:20 16.26377 -61.52374 38 ft 30 kts 103°
2026-04-30 18:20 16.26415 -61.52240 40 ft 13 kts 23°
2026-04-30 18:21 16.26500 -61.52207 41 ft 14 kts 17°
2026-04-30 18:21 16.26659 -61.52181 41 ft 27 kts 352°
2026-04-30 18:21 16.26737 -61.52290 37 ft 17 kts 284°
2026-04-30 18:21 16.26762 -61.52418 36 ft 20 kts 279°
2026-04-30 18:22 16.26787 -61.52560 34 ft 20 kts 283°
2026-04-30 18:22 16.26863 -61.52677 33 ft 6 kts 347°
2026-04-30 18:22 16.26876 -61.52676 33 ft 2 kts 11°
2026-04-30 18:23 16.26896 -61.52672 33 ft 3 kts 10°
2026-04-30 18:23 16.26910 -61.52669 33 ft 2 kts 10°
2026-04-30 18:23 16.26913 -61.52669 33 ft 0 kts 10°